Regional Weather Roundup
Issued by NWS Upton, NY

Current Version | Previous Version | Text Only | Print | Product List | Glossary Off
Versions: 1 2 3 4 5 6 7 8 9 10 11 12 13 14 15 16 17 18 19 20 21 22 23 24 25 26 27 28 29 30 31 32 33 34 35 36 37 38 39 40 41 42 43 44 45 46 47 48 49 50
000 ASUS41 KOKX 202014 RWROKX Regional Weather Roundup National Weather Service New York NY 400 PM EDT SAT JUL 20 2019 Note: "FAIR" indicates few or no clouds below 12,000 feet with no significant weather and/or obstructions to visibility. NYZ071-072-176-178-NJZ106-104-202100- New York City Metro Area CITY SKY/WX TMP DP RH WIND PRES REMARKS Central Park FAIR 93 71 48 MISG 29.82F HX 100 Bronx Lehman C N/A 97 72 44 W8 N/A HX 105 LaGuardia Arpt PTSUNNY 98 69 38 W9 29.78F HX 104 Queens College N/A 97 72 44 W10 N/A HX 105 Kennedy Intl PTSUNNY 96 76 52 SW21 29.80F HX 109 Breezy Point N/A 91 N/A N/A W7G13 N/A Brooklyn Coll N/A 95 72 46 SW14 N/A HX 103 Staten Island N/A 95 72 46 W9 N/A HX 103 Newark/Liberty PTSUNNY 97 70 41 SW14 29.79F HX 103 Teterboro FAIR 97 70 41 SW12G21 29.77F HX 103 $$ NYZ177-179-078>081-202100- Long Island New York CITY SKY/WX TMP DP RH WIND PRES REMARKS Jones Beach N/A 88 N/A N/A SW6 N/A Wantagh N/A 91 77 62 SW12 N/A HX 105 Hempstead N/A 95 73 49 S10 29.82S HX 105 Matinecock Pt N/A 86 N/A N/A W10 N/A Farmingdale FAIR 93 73 52 SW14 29.79F HX 102 MacArthur/ISP PTSUNNY 95 75 52 SW14 29.78F HX 107 Stony Brook N/A 93 75 55 NW6 N/A HX 104 Shirley FAIR 92 74 55 SW13 29.79F HX 101 Mt Sinai Harb N/A N/A N/A N/A W3 N/A Westhampton FAIR 92 76 59 SW10 29.81F HX 104 East Hampton FAIR 91 76 61 SW9 29.79F HX 104 Southold N/A 91 77 62 NW5 N/A HX 105 Montauk N/A 91 77 63 SW5 29.80F HX 104 $$ NYZ052-065-067-202100- Hudson Valley CITY SKY/WX TMP DP RH WIND PRES REMARKS White Plains FAIR 92 75 57 NW9 29.81F HX 103 Larchmont Harb N/A 93 N/A N/A W14 N/A Croton On Huds N/A 90 N/A N/A SW8 N/A Somers N/A 91 77 62 SW7 N/A HX 105 Brewster N/A 91 77 62 S5 N/A HX 105 Newburgh MOSUNNY 93 77 59 SW12 29.81F HX 107 Montgomery FAIR 92 76 59 VRB6 29.79F HX 104 Otisville N/A 90 73 58 W7 N/A HX 98 Warwick N/A 91 77 62 SW6 N/A HX 105 Suffern N/A 90 75 62 W5 N/A HX 100 Poughkeepsie FAIR 94 74 52 W8 29.76F HX 104 Albany FAIR 92 74 55 S6 29.77F HX 101 $$ NJZ001-105-106-008-010-013-015-019>022-104-202100- New Jersey CITY SKY/WX TMP DP RH WIND PRES REMARKS Newark/Liberty PTSUNNY 97 70 41 SW14 29.79F HX 103 Teterboro FAIR 97 70 41 SW12G21 29.77F HX 103 Caldwell FAIR 97 72 44 VRB6 29.79F HX 105 Somerville FAIR 95 76 53 CALM 29.79F HX 108 Linden FAIR 97 69 40 W14 29.80F HX 102 Perth Amboy N/A 93 N/A N/A W13 N/A Sussex FAIR 92 76 59 S6 29.82F HX 104 Andover N/A 92 75 57 VRB3 29.83F HX 103 Trenton FAIR 95 71 45 NW9 29.82S HX 102 Millville FAIR 94 76 55 SW7 29.84F HX 106 Atlantic City FAIR 98 73 44 VRB6G17 29.82F HX 108 Wrightstown FAIR 96 73 47 W13 29.81F HX 105 Toms River FAIR 99 77 49 W7 29.82F HX 114 Belmar FAIR 97 76 50 W8 29.82F HX 110 $$ PAZ047>061-062-071-202100- Eastern Pennsylvania CITY SKY/WX TMP DP RH WIND PRES REMARKS Philadelphia FAIR 97 71 42 SW12 29.82F HX 104 Allentown FAIR 94 75 54 SW12 29.83F HX 105 Scranton FAIR 92 75 57 SW12 29.86S HX 103 $$ CTZ002-004>006-009-010-012-RIZ004-006-007-MAZ004-011-015-202100- Southern New England In CT CITY SKY/WX TMP DP RH WIND PRES REMARKS Bradley Intl PTSUNNY 95 73 48 VRB3 29.75F HX 104 Hartford FAIR 92 76 59 S10 29.75F HX 104 Danbury FAIR 93 73 52 SW10 29.81F HX 102 Wtrbury/Oxford FAIR 92 77 61 SW8 29.82F HX 105 Norwalk Harbor N/A 86 N/A N/A W8 N/A Bridgeport FAIR 91 75 59 SW8 29.78F HX 101 Meriden FAIR 96 76 52 SW6 29.77F HX 109 New Haven FAIR 92 76 59 SW9 29.78F HX 104 Chester FAIR 91 77 62 SW9 29.81F HX 105 Groton FAIR 90 74 59 W10 29.77F HX 99 Willimantic FAIR 93 76 57 W8 29.77F HX 105 In RI CITY SKY/WX TMP DP RH WIND PRES REMARKS Providence PTSUNNY 94 77 57 W9 29.76F HX 108 Block Island FAIR 87 75 67 SW15 29.80F HX 96 Westerly FAIR 91 77 63 W8 29.79F HX 104 In MA CITY SKY/WX TMP DP RH WIND PRES REMARKS Boston FAIR 95 75 52 SW9 29.73F HX 107 Worcester FAIR 90 75 61 W12 29.81F HX 100 Westfield PTSUNNY 97 72 44 W6 29.76F HX 105 Provincetown FAIR 91 76 61 S8 29.76F HX 103 Nantucket FAIR 77 72 84 SW12 29.79F $$ ANZ330-335-338-340-345-350-353-355-202100- Coastal Marine Observations STATION/POSITION TIME SKY/WX TEMP WIND PRES VSBY WAVE AIR SEA DIR/SP/G HT/PER (UTC) (F) (DEG/KT/KT) (MB) (MI) (FT/S) NY Harb Entrance 1950 83 74 200/ 8/ 10 1009.1 2/ 6 20 S Fire Island 1950 80 77 220/ 12/ 14 1009.4 2/ 5 Great South Bay 1930 83 83 220/ 10/ 14 N/A 23 SSW Montauk P 1950 77 230/ 10/ 10 1010.3 15 E Barnegat Li 2000 81 N/A 2/ 7 Hudson Canyon 1950 81 80 230/ 10/ 12 1010.9 3/ 7 Kings Point 1924 90 70 300/ 9/ 11 1009.4 Execution Rocks 1945 74 260/ 8/ 10 N/A Western LI Sound 1920 88 250/ 8/ 12 N/A 1 Central LI Sound NOT AVBL Robbins Reef 1924 94 250/ 14/ 17 1009.1 $$ >>>>>>>>>>>>>>>>>>>>>>>>>>>> KEY <<<<<<<<<<<<<<<<<<<<<<<<<<< > < > SKY/WX - Sky Condition/Present Weather < > TMP - Temperature in Fahrenheit < > DP - Dew Point in Fahrenheit < > RH - Relative Humidity in Percent < > WIND - Direction (from) and Speed in MPH < > PRES - Mean Sea Level Pressure (inches of Hg) < > WCI - Wind Chill Index < > VSB - Visibility in Miles < > HX - Heat Index < > TC - Temperature in Celsius < > VRB - Variable Wind Direction < > < >>>>>>>>>>>>>>>>>>>>>>>>>>>> KEY <<<<<<<<<<<<<<<<<<<<<<<<<<<

USA.gov is the U.S. government's official web portal to all federal, state and local government web resources and services.